Terminal Aerodrome Forecast
Issued by NWS Sterling, VA

Home | Current Version | Previous Version | Text Only | Print | Product List | Glossary On
Versions: 1 2 3 4 5 6 7 8 9 10 11 12 13 14 15 16 17 18 19
000
FTUS41 KLWX 051742
TAFCHO
TAF
KCHO 051742Z 0518/0618 VRB05KT P6SM VCSH BKN015 OVC050
     FM052000 10005KT P6SM VCSH BKN050
     FM060100 VRB03KT 5SM -SHRA SCT020 BKN040
      TEMPO 0605/0609 2SM SHRA BKN015
     FM061300 15004KT 4SM BR VCSH SCT007 BKN015=

USA.gov is the U.S. government's official web portal to all federal, state and local government web resources and services.